Probability
0 0 0 0 0 0 0 0 0 0 0 0 0 0 0 0 0 0 0 0 1 3 6 7 7 7 7 6 5 3 3 4 3 3 3 2 2 3 2 1 0 0 0
0 0 0 0 0 0 0 0 0 0 0 0 0 0 0 0 0 0 0 0 0 2 4 5 6 7 7 7 6 5 4 4 4 4 3 2 2 3 3 1 1 0 0
0 0 0 0 0 0 0 0 0 0 0 0 0 0 0 0 0 0 0 0 0 0 1 3 4 5 6 7 8 8 7 7 6 5 3 3 3 3 3 3 2 1 0
0 0 0 0 0 0 0 0 0 0 0 0 0 0 0 0 0 0 0 0 0 0 0 1 1 2 4 5 6 7 8 9 8 6 5 4 4 4 4 3 2 1 0
0 0 0 0 0 0 0 0 0 0 0 0 0 0 0 0 0 0 0 0 0 0 0 0 0 0 1 2 2 3 4 6 7 7 7 6 5 6 5 4 3 2 1
0 0 0 0 0 0 0 0 0 0 0 0 0 0 0 0 0 0 0 0 0 0 0 0 0 0 0 0 0 1 1 2 3 5 7 7 6 6 5 4 4 3 2
0 0 0 0 0 0 0 0 0 0 0 0 0 0 0 0 0 0 0 0 0 0 0 0 0 0 0 0 0 0 0 0 1 3 5 6 6 6 5 4 4 3 4
0 0 0 0 0 0 0 0 0 0 0 0 0 0 0 0 0 0 0 0 0 0 0 0 0 0 0 0 0 0 0 0 0 1 2 4 6 6 5 4 4 5 5
0 0 0 0 0 0 0 0 0 0 0 0 0 0 0 0 0 0 0 0 0 0 0 0 0 0 0 0 0 0 0 0 0 1 2 2 3 4 5 5 5 7 8
0 0 0 0 0 0 0 0 0 0 0 0 0 0 0 0 0 0 0 0 0 0 0 0 0 0 0 0 0 0 0 0 0 1 2 1 1 2 4 5 5 7 9
0 0 0 0 0 0 0 0 0 0 0 0 0 0 0 0 0 0 0 0 0 0 0 0 0 0 0 0 0 0 0 0 0 0 1 1 0 0 2 3 4 6 7
0 0 0 0 0 0 0 0 0 0 0 0 0 0 0 0 0 0 0 0 0 0 0 0 0 0 0 0 0 0 0 0 0 0 0 0 0 0 0 1 3 4 4
0 0 0 0 0 0 0 0 0 0 0 0 0 0 0 0 0 0 0 0 0 0 0 0 0 0 0 0 0 0 0 0 0 0 0 0 0 0 0 1 2 3 3
0 0 0 0 0 0 0 0 0 0 0 0 0 0 0 0 0 0 0 0 0 0 0 0 0 0 0 0 0 0 0 0 0 0 0 0 0 0 0 1 1 1 2
0 0 0 0 0 0 0 0 0 0 0 0 0 0 0 0 0 0 0 0 0 0 0 0 0 0 0 0 0 0 0 0 0 0 0 0 0 0 0 0 0 0 1
0 0 0 0 0 0 0 0 0 0 0 0 0 0 0 0 0 0 0 0 0 0 0 0 0 0 0 0 0 0 0 0 0 0 0 0 0 0 0 0 0 0 0
0 0 0 0 0 0 0 0 0 0 0 0 0 0 0 0 0 0 0 0 0 0 0 0 0 0 0 0 0 0 0 0 0 0 0 0 0 0 0 0 0 0 0
0 0 0 0 0 0 0 0 0 0 0 0 0 0 0 0 0 0 0 0 0 0 0 0 0 0 0 0 0 0 0 0 0 0 0 0 0 0 0 0 0 0 0
0 0 0 0 0 0 0 0 0 0 0 0 0 0 0 0 0 0 0 0 0 0 0 0 0 0 0 0 0 0 0 0 0 0 0 0 0 0 0 0 0 0 0
0 0 0 0 0 0 0 0 0 0 0 0 0 0 0 0 0 0 0 0 0 0 0 0 0 0 0 0 0 0 0 0 0 0 0 0 0 0 0 0 0 0 0
0 0 0 0 0 0 0 0 0 0 0 0 0 0 0 0 0 0 0 0 0 0 0 0 0 0 0 0 0 0 0 0 0 0 0 0 0 0 0 0 0 0 0
0 0 0 0 0 0 0 0 0 0 0 0 0 0 0 0 0 0 0 0 0 0 0 0 0 0 0 0 0 0 0 0 0 0 0 0 0 0 0 0 0 0 0
0 0 0 0 0 0 0 0 0 0 0 0 0 0 0 0 0 0 0 0 0 0 0 0 0 0 0 0 0 0 0 0 0 0 0 0 0 0 0 0 0 0 0
0 0 0 0 0 0 0 0 0 0 0 0 0 0 0 0 0 0 0 0 0 0 0 0 0 0 0 0 0 0 0 0 0 0 0 0 0 0 0 0 0 0 0
0 0 0 0 0 0 0 0 0 0 0 0 0 0 0 0 0 0 0 0 0 0 0 0 0 0 0 0 0 0 0 0 0 0 0 0 0 0 0 0 0 0 0
0 0 0 0 0 0 0 0 0 0 0 0 0 0 0 0 0 0 0 0 0 0 0 0 0 0 0 0 0 0 0 0 0 0 0 0 0 0 0 0 0 0 0
Wind_Speed
2 2 2 2 3 3 3 4 4 5 5 5 5 5 5 4 3 2 2 4 5 6 7 8 8 8 9 9 9 9 9 9 10 10 11 11 11 11 11 12 11 11 11
2 2 2 3 3 3 3 3 4 4 4 4 5 6 5 4 3 3 2 3 4 5 6 7 7 8 8 8 8 9 9 9 9 9 10 11 11 11 12 13 12 12 12
2 2 2 2 3 3 4 3 4 4 4 5 6 6 4 4 3 3 2 2 3 4 6 6 6 6 7 7 7 7 8 9 10 10 10 10 10 11 12 12 13 13 13
3 2 2 2 3 3 3 3 4 4 4 5 5 4 4 3 3 3 3 3 2 3 4 7 6 7 7 8 8 8 8 8 9 10 11 10 10 11 12 13 14 14 14
3 2 2 2 3 3 3 4 3 3 4 5 5 4 3 3 3 3 3 4 3 3 3 6 7 8 9 9 9 9 8 8 7 8 10 11 11 11 12 12 13 13 14
3 3 2 3 3 3 3 3 3 3 3 4 4 4 3 3 2 3 3 4 4 5 4 5 4 6 9 10 10 11 11 10 9 8 9 10 10 11 11 12 13 14 15
3 2 2 2 3 2 3 4 3 4 4 4 3 4 3 3 3 3 3 3 5 5 4 4 3 3 4 9 11 11 11 11 11 10 10 9 9 11 11 11 11 12 13
2 2 2 2 2 2 3 4 3 2 3 4 2 2 3 4 4 4 3 4 5 4 5 5 4 4 4 3 8 12 12 12 12 12 11 11 10 11 12 12 12 12 12
1 1 2 2 2 2 2 3 3 2 2 2 2 1 1 2 4 3 3 3 4 4 4 4 5 5 5 4 5 10 13 13 13 13 13 12 12 11 11 12 12 12 12
1 1 1 1 1 1 2 2 2 1 1 2 2 1 0 1 2 4 3 3 4 4 4 4 4 4 5 4 6 10 13 13 13 13 13 13 12 12 13 12 12 12 12
1 1 1 1 1 1 1 1 2 1 1 0 1 1 1 1 1 2 4 5 4 3 3 3 2 3 4 5 5 9 13 14 15 14 14 14 13 13 12 12 12 12 13
1 1 1 1 1 1 1 1 1 1 1 1 1 1 1 1 1 1 3 4 4 4 4 2 2 3 3 4 7 13 14 15 15 16 15 14 13 13 13 13 13 12 12
2 2 1 1 1 1 1 1 1 1 1 1 1 1 1 1 1 2 2 3 4 4 3 1 1 3 4 4 5 13 13 15 15 16 16 15 14 13 13 13 13 13 12
3 3 2 2 2 2 1 1 1 1 1 1 1 1 1 1 1 1 1 2 4 3 3 3 2 2 4 4 8 12 8 15 15 16 16 15 14 13 13 13 13 13 13
3 3 3 3 2 2 2 1 1 1 1 1 1 1 1 1 1 1 1 1 2 3 4 3 3 3 4 4 8 6 6 13 15 15 15 15 14 14 13 13 12 12 12
4 3 3 3 3 3 2 2 2 2 1 2 1 1 2 1 1 1 1 1 1 2 4 3 3 4 5 6 9 6 6 14 13 15 15 15 14 13 13 13 13 13 12
4 4 4 4 4 3 3 3 3 2 2 2 2 2 3 2 1 1 1 1 1 2 4 4 3 3 4 5 6 5 5 5 6 14 15 15 14 13 13 13 13 13 13
4 5 4 4 4 4 3 4 4 3 3 3 3 2 3 2 2 2 1 2 2 2 3 5 4 3 4 5 6 6 6 6 5 11 14 14 14 13 14 14 13 13 13
4 4 4 5 5 4 4 4 4 4 4 4 4 3 3 2 3 2 2 2 2 3 3 4 5 3 3 4 5 5 6 5 6 8 11 12 13 14 14 14 13 13 13
5 5 5 5 5 5 5 5 4 4 4 4 4 4 4 4 4 4 3 3 3 3 3 4 4 4 3 3 3 4 6 4 6 6 7 9 12 14 14 14 13 13 13
6 5 5 5 5 5 5 5 5 5 5 4 4 4 5 6 7 5 4 3 3 3 3 4 4 4 4 3 3 3 6 6 5 3 4 6 6 5 7 10 11 12 13
5 4 5 6 6 5 9 10 7 5 5 5 5 5 5 6 7 9 9 7 5 4 4 3 4 5 5 4 4 4 4 5 5 3 5 7 4 5 5 5 11 14 14
5 5 6 6 6 8 12 11 11 5 5 5 5 5 4 5 6 4 6 7 7 8 7 4 5 5 5 4 4 5 5 5 6 5 5 6 4 5 5 7 14 14 14
5 5 6 6 6 8 12 11 11 6 5 5 5 5 5 5 5 5 4 4 4 5 6 4 4 5 5 4 4 5 5 5 5 4 3 5 4 5 7 6 11 12 12
5 5 5 6 6 8 11 11 10 3 4 5 5 5 5 6 9 10 5 5 5 5 7 8 8 8 9 9 6 3 3 4 6 4 2 3 4 6 6 5 6 11 13
6 5 5 6 7 7 10 11 10 3 4 4 4 5 9 9 10 10 6 5 6 5 4 4 5 6 5 6 7 3 2 3 4 4 2 2 3 5 6 4 3 5 7
Wind_Direction
14 6 4 6 0 358 356 349 348 342 339 337 335 333 327 315 310 302 299 306 306 300 296 289 283 275 266 258 255 255 253 252 251 249 247 245 243 241 241 239 238 239 237
19 14 9 6 1 357 351 343 343 340 336 335 333 331 321 322 323 323 324 326 329 325 313 303 299 291 284 274 265 259 255 256 258 255 252 250 247 246 244 240 238 238 236
28 27 18 8 357 352 353 351 353 349 350 343 332 327 332 338 335 339 340 338 336 344 338 326 318 314 305 298 289 282 272 263 260 262 260 258 255 252 250 247 241 239 237
29 32 27 6 353 359 3 359 2 353 349 341 330 327 335 339 345 357 6 6 0 355 353 352 346 336 325 315 306 298 288 286 277 266 265 263 262 258 254 252 247 243 239
28 35 28 5 1 8 6 358 360 354 341 338 326 326 335 341 345 4 20 24 23 20 12 9 8 0 350 343 333 324 317 305 299 284 272 265 263 261 259 256 252 246 243
22 30 29 12 9 13 6 360 349 351 337 331 326 332 332 339 356 15 19 27 26 26 22 19 16 14 16 10 360 352 343 335 325 316 304 283 268 264 263 260 258 252 247
14 30 20 10 10 15 1 352 347 350 351 348 351 342 340 359 26 23 21 30 24 19 21 20 16 14 7 11 8 0 352 345 339 329 319 310 294 276 268 265 262 260 255
7 25 25 13 6 9 6 3 3 357 350 5 8 349 342 342 2 11 20 29 17 12 17 15 16 14 11 7 6 5 353 343 336 333 330 323 313 303 282 272 268 263 259
360 11 16 17 7 17 3 354 3 13 345 343 18 34 4 311 319 324 4 18 11 9 2 357 12 15 21 11 1 3 0 351 340 334 330 326 321 314 309 290 279 271 265
339 350 13 17 6 6 358 347 9 357 2 335 340 360 284 261 304 314 321 352 358 356 350 352 7 12 16 7 0 0 357 351 342 332 327 324 320 316 309 305 297 282 273
307 322 351 11 354 344 334 341 354 4 10 332 317 314 312 311 297 273 301 323 333 330 336 345 1 6 6 1 351 351 353 349 345 336 329 327 324 320 317 314 309 301 285
288 298 302 332 317 305 301 309 327 354 346 332 313 296 274 277 286 273 281 303 309 307 316 343 9 0 359 357 351 351 349 347 342 338 330 327 328 327 323 318 312 307 301
258 264 267 269 267 266 272 282 294 304 301 293 284 278 279 269 262 258 270 290 297 297 305 326 7 7 2 356 343 350 346 344 341 337 334 331 328 328 326 321 319 314 307
239 239 240 252 258 257 262 263 260 259 252 256 290 287 278 285 277 258 257 284 299 298 296 297 321 9 353 346 340 349 339 341 341 340 336 334 333 332 330 325 322 321 319
235 229 230 237 246 244 242 232 240 257 250 250 258 264 262 275 290 289 273 253 264 291 294 302 319 341 346 341 340 342 334 334 342 344 343 340 338 336 334 334 332 328 326
234 228 231 232 235 236 230 218 238 247 244 258 252 257 265 263 271 280 280 277 254 251 274 288 291 317 333 336 337 335 327 337 340 342 343 343 340 342 343 342 339 334 328
228 228 229 229 231 233 227 220 231 233 236 254 259 251 260 262 261 272 278 277 269 253 269 285 285 310 315 322 323 322 320 323 325 335 337 340 338 339 341 340 339 336 331
231 226 224 225 228 228 222 219 230 231 229 240 248 247 259 262 264 262 263 266 264 263 264 283 295 300 302 310 313 318 325 328 318 326 333 336 336 337 337 337 337 335 334
236 230 223 228 230 226 222 223 223 227 228 235 238 238 247 247 258 256 256 258 262 271 262 273 287 291 290 302 312 312 315 314 317 321 328 333 335 334 334 334 334 334 335
232 231 228 229 230 228 225 226 225 226 232 238 237 235 239 235 240 244 250 252 252 262 268 271 281 290 288 292 305 313 320 322 317 317 327 331 329 330 331 330 330 331 332
233 230 229 234 233 228 228 227 226 226 229 239 245 243 242 243 244 244 248 246 244 250 263 270 280 291 296 307 309 308 313 317 309 307 325 319 317 315 321 324 324 325 328
239 232 231 233 234 237 242 239 232 225 226 233 245 248 249 254 257 262 264 263 255 251 254 257 270 279 287 292 297 304 310 321 316 319 325 310 307 307 310 305 315 322 326
238 237 237 233 237 242 245 246 242 228 223 230 236 239 247 248 252 247 262 271 276 275 270 260 259 265 277 283 292 298 298 296 289 300 312 297 303 302 305 311 317 320 324
238 238 239 236 239 245 246 248 248 236 223 229 232 232 239 248 246 239 234 246 254 264 272 269 251 257 262 267 267 281 288 292 284 283 290 289 303 301 307 305 312 323 330
244 240 239 235 237 248 249 249 246 226 227 233 233 234 236 241 252 253 244 242 253 260 271 275 279 283 291 296 295 294 299 306 304 301 300 289 305 308 299 290 305 323 326
245 245 247 239 235 242 249 249 244 221 229 237 237 240 247 248 252 255 242 236 252 257 255 273 283 292 295 298 302 290 275 285 292 296 305 317 306 325 312 290 294 310 314